TimeCDT,TemperatureF,Dew PointF,Humidity,Sea Level PressureIn,VisibilityMPH,Wind Direction,Wind SpeedMPH,Gust SpeedMPH,PrecipitationIn,Events,Conditions,WindDirDegrees,DateUTC
12:15 AM,49.3,20.5,32,29.99,10.0,SSW,4.6,-,N/A,,Clear,200,2014-04-11 05:15:00
12:35 AM,50.9,20.1,30,29.99,10.0,SSW,3.5,-,N/A,,Clear,200,2014-04-11 05:35:00
12:55 AM,51.3,20.1,29,30.00,10.0,Calm,Calm,-,N/A,,Clear,0,2014-04-11 05:55:00
1:15 AM,51.3,20.3,30,30.00,10.0,Calm,Calm,-,N/A,,Clear,0,2014-04-11 06:15:00
1:35 AM,50.4,20.3,31,30.00,10.0,Calm,Calm,-,N/A,,Clear,0,2014-04-11 06:35:00
1:55 AM,50.9,20.3,30,30.00,10.0,SSW,3.5,-,N/A,,Clear,210,2014-04-11 06:55:00
2:15 AM,49.8,20.7,32,30.01,10.0,SW,4.6,-,N/A,,Clear,220,2014-04-11 07:15:00
2:35 AM,49.3,20.7,32,30.00,10.0,SSW,4.6,-,N/A,,Mostly Cloudy,200,2014-04-11 07:35:00
2:55 AM,49.3,21.0,33,30.00,10.0,SSW,3.5,-,N/A,,Scattered Clouds,200,2014-04-11 07:55:00
3:15 AM,46.6,21.0,36,30.00,10.0,South,4.6,-,N/A,,Scattered Clouds,190,2014-04-11 08:15:00
3:35 AM,45.9,21.9,39,30.00,10.0,South,5.8,-,N/A,,Mostly Cloudy,180,2014-04-11 08:35:00
3:55 AM,45.9,22.6,40,29.99,10.0,South,6.9,-,N/A,,Mostly Cloudy,170,2014-04-11 08:55:00
4:15 AM,45.5,22.3,40,29.99,10.0,South,5.8,-,N/A,,Scattered Clouds,190,2014-04-11 09:15:00
4:35 AM,43.5,22.1,43,29.99,10.0,SSW,5.8,-,N/A,,Clear,210,2014-04-11 09:35:00
4:55 AM,44.8,21.0,39,29.99,10.0,SSW,5.8,-,N/A,,Scattered Clouds,200,2014-04-11 09:55:00
5:15 AM,43.9,21.0,40,29.99,10.0,South,5.8,-,N/A,,Scattered Clouds,190,2014-04-11 10:15:00
5:35 AM,42.8,21.2,42,29.99,10.0,SSW,5.8,-,N/A,,Clear,200,2014-04-11 10:35:00
5:55 AM,43.3,21.0,41,29.99,10.0,SSW,6.9,-,N/A,,Clear,200,2014-04-11 10:55:00
6:15 AM,42.8,21.6,43,29.99,10.0,South,6.9,-,N/A,,Scattered Clouds,190,2014-04-11 11:15:00
6:35 AM,43.2,22.1,43,29.99,10.0,SSW,4.6,-,N/A,,Mostly Cloudy,200,2014-04-11 11:35:00
6:55 AM,44.8,21.2,39,30.00,10.0,SSW,4.6,-,N/A,,Mostly Cloudy,210,2014-04-11 11:55:00
7:15 AM,44.6,21.2,39,30.01,10.0,SSW,4.6,-,N/A,,Clear,210,2014-04-11 12:15:00
7:35 AM,44.2,21.4,40,30.01,10.0,South,4.6,-,N/A,,Clear,190,2014-04-11 12:35:00
7:55 AM,45.5,23.0,41,30.02,10.0,SSW,6.9,-,N/A,,Clear,210,2014-04-11 12:55:00
8:15 AM,49.5,24.8,38,30.02,10.0,SSW,5.8,-,N/A,,Clear,210,2014-04-11 13:15:00
8:35 AM,51.4,23.4,33,30.03,10.0,SW,8.1,-,N/A,,Clear,220,2014-04-11 13:35:00
9:15 AM,55.8,24.3,30,30.03,10.0,SW,10.4,-,N/A,,Clear,230,2014-04-11 14:15:00
9:35 AM,58.3,23.2,26,30.03,10.0,SSW,9.2,-,N/A,,Clear,210,2014-04-11 14:35:00
9:55 AM,60.3,23.7,25,30.03,10.0,SW,11.5,-,N/A,,Clear,220,2014-04-11 14:55:00
10:15 AM,61.7,23.2,23,30.03,10.0,SSW,15.0,-,N/A,,Clear,210,2014-04-11 15:15:00
10:35 AM,62.4,23.9,23,30.04,10.0,SSW,15.0,-,N/A,,Clear,210,2014-04-11 15:35:00
10:55 AM,64.4,22.6,20,30.05,10.0,SSW,19.6,23.0,N/A,,Clear,210,2014-04-11 15:55:00
11:15 AM,65.5,21.4,19,30.04,10.0,SSW,18.4,24.2,N/A,,Clear,210,2014-04-11 16:15:00
11:35 AM,66.9,21.9,18,30.04,10.0,SW,17.3,24.2,N/A,,Clear,230,2014-04-11 16:35:00
11:55 AM,68.2,22.6,18,30.03,10.0,SSW,13.8,25.3,N/A,,Clear,210,2014-04-11 16:55:00
12:15 PM,68.5,24.1,19,30.03,10.0,SW,15.0,-,N/A,,Clear,230,2014-04-11 17:15:00
12:35 PM,70.5,23.9,17,30.02,10.0,SSW,18.4,23.0,N/A,,Clear,210,2014-04-11 17:35:00
12:55 PM,71.1,24.1,17,30.00,10.0,SW,11.5,18.4,N/A,,Clear,220,2014-04-11 17:55:00
1:15 PM,71.6,24.1,17,30.00,10.0,SW,9.2,-,N/A,,Clear,220,2014-04-11 18:15:00
1:35 PM,71.2,23.5,17,29.98,10.0,WSW,11.5,19.6,N/A,,Clear,250,2014-04-11 18:35:00
1:55 PM,72.7,23.5,16,29.98,10.0,South,6.9,19.6,N/A,,Clear,190,2014-04-11 18:55:00
2:15 PM,72.7,22.6,15,29.97,10.0,WSW,15.0,18.4,N/A,,Clear,240,2014-04-11 19:15:00
2:35 PM,72.9,23.0,15,29.96,10.0,SW,8.1,17.3,N/A,,Clear,230,2014-04-11 19:35:00
2:55 PM,74.7,23.4,15,29.95,10.0,SSW,9.2,19.6,N/A,,Clear,210,2014-04-11 19:55:00
3:15 PM,74.3,23.7,15,29.94,10.0,SSW,9.2,-,N/A,,Clear,210,2014-04-11 20:15:00
3:35 PM,75.0,24.1,15,29.93,10.0,SSW,11.5,16.1,N/A,,Clear,210,2014-04-11 20:35:00
3:55 PM,75.6,24.8,15,29.92,10.0,SSW,9.2,-,N/A,,Clear,210,2014-04-11 20:55:00
4:15 PM,74.7,24.6,16,29.91,10.0,SSW,9.2,17.3,N/A,,Clear,200,2014-04-11 21:15:00
4:35 PM,75.9,25.3,15,29.90,10.0,SSW,5.8,-,N/A,,Clear,210,2014-04-11 21:35:00
4:55 PM,75.9,26.1,16,29.89,10.0,WSW,9.2,-,N/A,,Clear,240,2014-04-11 21:55:00
5:15 PM,76.8,27.3,16,29.88,10.0,SSW,10.4,-,N/A,,Clear,210,2014-04-11 22:15:00
5:35 PM,76.3,28.0,17,29.88,10.0,South,10.4,18.4,N/A,,Clear,190,2014-04-11 22:35:00
5:55 PM,75.7,28.9,18,29.87,10.0,SSW,9.2,-,N/A,,Clear,200,2014-04-11 22:55:00
6:15 PM,75.7,29.3,18,29.87,10.0,South,11.5,17.3,N/A,,Clear,190,2014-04-11 23:15:00
6:35 PM,75.2,29.1,18,29.87,10.0,South,11.5,-,N/A,,Clear,180,2014-04-11 23:35:00
6:55 PM,73.0,29.3,20,29.85,10.0,South,12.7,-,N/A,,Clear,170,2014-04-11 23:55:00
7:15 PM,73.0,29.8,20,29.85,10.0,South,10.4,-,N/A,,Clear,180,2014-04-12 00:15:00
7:35 PM,70.9,30.2,22,29.85,10.0,South,9.2,-,N/A,,Clear,170,2014-04-12 00:35:00
7:55 PM,70.0,30.2,23,29.85,10.0,SSE,8.1,-,N/A,,Clear,160,2014-04-12 00:55:00
8:15 PM,68.7,29.8,24,29.85,10.0,SSE,6.9,-,N/A,,Clear,160,2014-04-12 01:15:00
8:35 PM,68.0,30.2,24,29.85,10.0,SE,8.1,-,N/A,,Clear,140,2014-04-12 01:35:00
8:55 PM,68.2,30.2,24,29.86,10.0,SSE,8.1,-,N/A,,Clear,150,2014-04-12 01:55:00
9:15 PM,67.6,30.6,25,29.86,10.0,SSE,8.1,-,N/A,,Clear,160,2014-04-12 02:15:00
9:35 PM,65.8,30.7,27,29.86,10.0,SSE,9.2,-,N/A,,Clear,160,2014-04-12 02:35:00
9:55 PM,64.8,31.1,28,29.86,10.0,SSE,9.2,-,N/A,,Clear,160,2014-04-12 02:55:00
10:15 PM,64.9,31.8,29,29.85,10.0,SSE,10.4,-,N/A,,Clear,160,2014-04-12 03:15:00
10:35 PM,64.8,32.0,29,29.85,10.0,SSE,9.2,-,N/A,,Clear,160,2014-04-12 03:35:00
10:55 PM,65.1,32.0,29,29.84,10.0,SSE,12.7,19.6,N/A,,Clear,150,2014-04-12 03:55:00
11:15 PM,64.4,32.0,30,29.82,10.0,SSE,12.7,-,N/A,,Clear,160,2014-04-12 04:15:00
11:35 PM,64.6,32.0,30,29.82,10.0,SSE,13.8,-,N/A,,Clear,160,2014-04-12 04:35:00
11:55 PM,63.9,32.0,30,29.81,10.0,SSE,15.0,-,N/A,,Clear,160,2014-04-12 04:55:00